RADUGA 15 [-]

Last updated on Aug. 12, 2020, 5:32 a.m. UTC

1 15057U 84063A   20224.81514257 -.00000176  00000-0  00000-0 0  9997
2 15057  12.6643 329.5358 0004099 113.2612 257.1512  1.00167918119697
UTC
Height (km)
Latitude
Longitude
Inclination
Orbital Period
UTC large
Height (km)
Speed (km/s)
/
Latitude / Longitude
Inclination (degrees)
Orbital Period (minutes)
Azimuth
Elevation
Range (km)
Doppler Factor
iOS Compass Heading
iOS Angle

Next 30 passes for location: Hong Kong

Rise time Rise Azimuth (degrees) Set time Set Azimuth (degrees) Duration Max altitude (degrees)

No matching passes for this satellites